Time,TemperatureF,DewpointF,PressureIn,WindDirection,WindDirectionDegrees,WindSpeedMPH,WindSpeedGustMPH,Humidity,HourlyPrecipIn,Conditions,Clouds,dailyrainin,SoftwareType,DateUTC
2013-07-06 00:00:00,54.7,53.6,28.73,SSW,202,1.6,1.6,96,0.00,,CLR,0.00,VWS V14.01,2013-07-06 07:00:00,
2013-07-06 00:05:00,54.1,52.7,28.73,WNW,292,0.0,0.0,95,0.00,,CLR,0.00,VWS V14.01,2013-07-06 07:05:00,
2013-07-06 00:10:00,53.6,52.2,28.73,SSW,202,1.6,1.6,95,0.00,,CLR,0.00,VWS V14.01,2013-07-06 07:10:00,
2013-07-06 00:15:00,53.2,51.8,28.73,SSW,202,0.0,0.0,95,0.00,,CLR,0.00,VWS V14.01,2013-07-06 07:15:00,
2013-07-06 00:20:00,53.1,51.7,28.73,SW,225,0.0,0.0,95,0.00,,CLR,0.00,VWS V14.01,2013-07-06 07:20:00,
2013-07-06 00:25:00,52.5,51.1,28.76,West,270,0.0,0.0,95,0.00,,CLR,0.00,VWS V14.01,2013-07-06 07:25:00,
2013-07-06 00:30:00,52.2,50.8,28.76,West,270,0.0,0.0,95,0.00,,CLR,0.00,VWS V14.01,2013-07-06 07:30:00,
2013-07-06 00:35:00,51.8,50.4,28.76,SSW,202,0.0,0.0,95,0.00,,CLR,0.00,VWS V14.01,2013-07-06 07:35:00,
2013-07-06 00:40:00,51.6,50.2,28.73,WSW,248,0.0,0.0,95,0.00,,CLR,0.00,VWS V14.01,2013-07-06 07:40:00,
2013-07-06 00:45:00,51.4,50.1,28.73,WSW,248,1.6,1.6,95,0.00,,CLR,0.00,VWS V14.01,2013-07-06 07:45:00,
2013-07-06 00:50:00,51.1,49.7,28.73,ENE,68,1.1,1.1,95,0.00,,CLR,0.00,VWS V14.01,2013-07-06 07:50:00,
2013-07-06 00:55:00,51.1,49.7,28.73,SSW,202,0.0,0.0,95,0.00,,CLR,0.00,VWS V14.01,2013-07-06 07:55:00,
2013-07-06 01:00:00,50.7,49.3,28.73,SSW,202,0.0,0.0,95,0.00,,CLR,0.00,VWS V14.01,2013-07-06 08:00:00,
2013-07-06 01:05:00,50.5,49.2,28.73,WSW,248,0.9,0.9,95,0.00,,CLR,0.00,VWS V14.01,2013-07-06 08:05:00,
2013-07-06 01:10:00,50.2,48.8,28.76,WSW,248,0.0,0.0,95,0.00,,CLR,0.00,VWS V14.01,2013-07-06 08:10:00,
2013-07-06 01:15:00,50.2,49.1,28.76,SSW,202,1.3,1.3,96,0.00,,CLR,0.00,VWS V14.01,2013-07-06 08:15:00,
2013-07-06 01:20:00,49.8,48.7,28.76,SSW,202,0.0,0.0,96,0.00,,CLR,0.00,VWS V14.01,2013-07-06 08:20:00,
2013-07-06 01:25:00,49.8,48.7,28.76,SSW,202,0.0,0.0,96,0.00,,CLR,0.00,VWS V14.01,2013-07-06 08:25:00,
2013-07-06 01:30:00,49.3,48.2,28.76,SSW,202,0.0,0.0,96,0.00,,CLR,0.00,VWS V14.01,2013-07-06 08:30:00,
2013-07-06 01:35:00,49.1,48.0,28.76,SSW,202,0.0,0.0,96,0.00,,CLR,0.00,VWS V14.01,2013-07-06 08:35:00,
2013-07-06 01:40:00,49.1,48.0,28.73,SSW,202,0.0,0.0,96,0.00,,CLR,0.00,VWS V14.01,2013-07-06 08:40:00,
2013-07-06 01:45:00,48.9,47.8,28.73,SSW,202,0.0,0.0,96,0.00,,CLR,0.00,VWS V14.01,2013-07-06 08:45:00,
2013-07-06 01:50:00,48.9,47.8,28.73,SSW,202,0.0,0.0,96,0.00,,CLR,0.00,VWS V14.01,2013-07-06 08:50:00,
2013-07-06 01:55:00,48.6,47.5,28.73,SW,225,0.0,0.0,96,0.00,,CLR,0.00,VWS V14.01,2013-07-06 08:55:00,
2013-07-06 02:00:00,48.6,47.5,28.73,SW,225,0.0,0.0,96,0.00,,CLR,0.00,VWS V14.01,2013-07-06 09:00:00,
2013-07-06 02:05:00,48.4,47.3,28.73,SW,225,0.0,0.0,96,0.00,,CLR,0.00,VWS V14.01,2013-07-06 09:05:00,
2013-07-06 02:10:00,48.4,47.3,28.76,SSW,202,0.0,0.0,96,0.00,,CLR,0.00,VWS V14.01,2013-07-06 09:10:00,
2013-07-06 02:15:00,48.4,47.3,28.76,SSW,202,2.2,2.2,96,0.00,,CLR,0.00,VWS V14.01,2013-07-06 09:15:00,
2013-07-06 02:20:00,48.6,47.8,28.76,North,0,0.0,0.0,97,0.00,,CLR,0.00,VWS V14.01,2013-07-06 09:20:00,
2013-07-06 02:25:00,49.1,48.3,28.73,WSW,248,1.6,1.6,97,0.00,,CLR,0.00,VWS V14.01,2013-07-06 09:25:00,
2013-07-06 02:30:00,49.6,48.8,28.73,SSW,202,0.0,0.0,97,0.00,,CLR,0.00,VWS V14.01,2013-07-06 09:30:00,
2013-07-06 02:35:00,50.0,49.2,28.73,East,90,0.0,0.0,97,0.00,,CLR,0.00,VWS V14.01,2013-07-06 09:35:00,
2013-07-06 02:40:00,50.4,49.5,28.73,SSW,202,1.3,1.3,97,0.00,,CLR,0.00,VWS V14.01,2013-07-06 09:40:00,
2013-07-06 02:45:00,50.7,50.2,28.73,WSW,248,0.0,0.0,98,0.00,,CLR,0.00,VWS V14.01,2013-07-06 09:45:00,
2013-07-06 02:50:00,50.9,50.4,28.73,NNW,338,1.1,1.1,98,0.00,,CLR,0.00,VWS V14.01,2013-07-06 09:50:00,
2013-07-06 02:55:00,51.4,50.9,28.73,SE,135,2.5,2.5,98,0.00,,CLR,0.00,VWS V14.01,2013-07-06 09:55:00,
2013-07-06 03:00:00,51.4,50.9,28.73,SSE,158,0.9,0.9,98,0.00,,CLR,0.00,VWS V14.01,2013-07-06 10:00:00,
2013-07-06 03:05:00,51.6,51.1,28.73,South,180,0.0,0.0,98,0.00,,CLR,0.00,VWS V14.01,2013-07-06 10:05:00,
2013-07-06 03:10:00,51.6,51.1,28.73,East,90,0.0,0.0,98,0.00,,CLR,0.00,VWS V14.01,2013-07-06 10:10:00,
2013-07-06 03:15:00,51.8,51.3,28.73,WSW,248,0.0,0.0,98,0.00,,CLR,0.00,VWS V14.01,2013-07-06 10:15:00,
2013-07-06 03:20:00,52.0,51.4,28.73,SW,225,0.0,0.0,98,0.00,,CLR,0.00,VWS V14.01,2013-07-06 10:20:00,
2013-07-06 03:25:00,52.2,51.6,28.76,SSE,158,0.0,0.0,98,0.00,,CLR,0.00,VWS V14.01,2013-07-06 10:25:00,
2013-07-06 03:30:00,52.3,51.8,28.76,South,180,0.0,0.0,98,0.00,,CLR,0.00,VWS V14.01,2013-07-06 10:30:00,
2013-07-06 03:35:00,52.3,51.8,28.76,South,180,1.1,1.1,98,0.00,,CLR,0.00,VWS V14.01,2013-07-06 10:35:00,
2013-07-06 03:40:00,52.7,52.2,28.73,SSW,202,1.1,1.1,98,0.00,,CLR,0.00,VWS V14.01,2013-07-06 10:40:00,
2013-07-06 03:45:00,52.9,52.3,28.73,SSW,202,0.0,0.0,98,0.00,,CLR,0.00,VWS V14.01,2013-07-06 10:45:00,
2013-07-06 03:50:00,53.1,52.5,28.73,SSW,202,0.0,0.0,98,0.00,,CLR,0.00,VWS V14.01,2013-07-06 10:50:00,
2013-07-06 03:55:00,53.2,52.7,28.73,ESE,112,1.1,1.1,98,0.00,,CLR,0.00,VWS V14.01,2013-07-06 10:55:00,
2013-07-06 04:00:00,53.2,52.7,28.73,SE,135,0.0,0.0,98,0.00,,CLR,0.00,VWS V14.01,2013-07-06 11:00:00,
2013-07-06 04:05:00,53.2,52.7,28.73,SE,135,1.6,1.6,98,0.00,,OVC014,0.00,VWS V14.01,2013-07-06 11:05:00,
2013-07-06 04:10:00,53.2,52.7,28.73,SSW,202,0.0,0.0,98,0.00,,OVC014,0.00,VWS V14.01,2013-07-06 11:10:00,
2013-07-06 04:14:00,53.4,52.9,28.73,SSE,158,0.0,0.0,98,0.00,,OVC014,0.00,VWS V14.01,2013-07-06 11:14:00,
2013-07-06 04:19:00,53.4,52.9,28.73,SSE,158,0.0,0.0,98,0.00,,OVC014,0.00,VWS V14.01,2013-07-06 11:19:00,
2013-07-06 04:24:00,53.6,53.0,28.73,SSE,158,0.0,0.0,98,0.00,,OVC014,0.00,VWS V14.01,2013-07-06 11:24:00,
2013-07-06 04:29:00,53.6,53.0,28.73,South,180,1.1,1.1,98,0.00,,OVC014,0.00,VWS V14.01,2013-07-06 11:29:00,
2013-07-06 04:30:00,52.3,51.8,28.76,South,180,0.0,0.0,98,0.00,,-RA,0.00,VWS V14.01,2013-07-06 11:30:00,
2013-07-06 04:34:00,53.8,53.2,28.73,WNW,292,0.0,0.0,98,0.00,,OVC014,0.00,VWS V14.01,2013-07-06 11:34:00,
2013-07-06 04:39:00,53.8,53.2,28.73,WSW,248,0.0,0.0,98,0.00,,OVC014,0.00,VWS V14.01,2013-07-06 11:39:00,
2013-07-06 04:44:00,53.8,53.2,28.73,SW,225,0.0,0.0,98,0.00,,OVC014,0.00,VWS V14.01,2013-07-06 11:44:00,
2013-07-06 04:49:00,53.8,53.2,28.73,SW,225,0.0,0.0,98,0.00,,OVC014,0.00,VWS V14.01,2013-07-06 11:49:00,
2013-07-06 04:54:00,54.0,53.4,28.73,NNE,22,0.0,0.0,98,0.00,,OVC014,0.00,VWS V14.01,2013-07-06 11:54:00,
2013-07-06 04:59:00,54.0,53.4,28.73,NNW,338,1.1,1.1,98,0.00,,OVC014,0.00,VWS V14.01,2013-07-06 11:59:00,
2013-07-06 05:00:00,53.2,52.7,28.73,SE,135,0.0,0.0,98,0.00,,-RA,0.00,VWS V14.01,2013-07-06 12:00:00,
2013-07-06 05:04:00,54.0,53.4,28.73,SSE,158,1.6,1.6,98,0.00,,OVC014,0.00,VWS V14.01,2013-07-06 12:04:00,
2013-07-06 05:09:00,54.1,53.6,28.73,NE,45,1.1,1.1,98,0.00,,OVC014,0.00,VWS V14.01,2013-07-06 12:09:00,
2013-07-06 05:14:00,54.1,53.6,28.73,ENE,68,2.7,2.7,98,0.00,,OVC014,0.00,VWS V14.01,2013-07-06 12:14:00,
2013-07-06 05:19:00,54.1,53.6,28.73,WSW,248,2.0,2.0,98,0.00,,OVC014,0.00,VWS V14.01,2013-07-06 12:19:00,
2013-07-06 05:24:00,54.1,53.3,28.73,North,0,1.1,1.1,97,0.00,,OVC014,0.00,VWS V14.01,2013-07-06 12:24:00,
2013-07-06 05:29:00,54.1,53.3,28.73,North,0,1.3,1.3,97,0.00,,OVC014,0.00,VWS V14.01,2013-07-06 12:29:00,
2013-07-06 05:30:00,53.6,53.0,28.73,South,180,0.0,0.0,98,0.00,,-RA,0.00,VWS V14.01,2013-07-06 12:30:00,
2013-07-06 05:34:00,54.1,53.3,28.73,SSW,202,1.1,1.1,97,0.00,,OVC012,0.00,VWS V14.01,2013-07-06 12:34:00,
2013-07-06 05:39:00,54.3,53.5,28.76,SE,135,1.3,1.3,97,0.00,,OVC012,0.00,VWS V14.01,2013-07-06 12:39:00,
2013-07-06 05:44:00,54.3,53.5,28.76,NNE,22,1.6,1.6,97,0.00,,OVC012,0.00,VWS V14.01,2013-07-06 12:44:00,
2013-07-06 05:49:00,54.5,53.4,28.76,ESE,112,0.0,0.0,96,0.00,,OVC012,0.00,VWS V14.01,2013-07-06 12:49:00,
2013-07-06 05:54:00,54.5,53.4,28.76,NNW,338,0.0,0.0,96,0.00,,OVC012,0.00,VWS V14.01,2013-07-06 12:54:00,
2013-07-06 05:59:00,54.5,53.4,28.76,East,90,1.3,1.3,96,0.00,,OVC012,0.00,VWS V14.01,2013-07-06 12:59:00,
2013-07-06 06:00:00,54.0,53.4,28.73,NNW,338,1.3,1.3,98,0.00,,-RA,0.00,VWS V14.01,2013-07-06 13:00:00,
2013-07-06 06:04:00,54.5,53.4,28.76,West,270,2.0,2.0,96,0.00,,,0.00,VWS V14.01,2013-07-06 13:04:00,
2013-07-06 06:09:00,54.7,53.3,28.76,NNW,338,3.1,3.1,95,0.00,,,0.00,VWS V14.01,2013-07-06 13:09:00,
2013-07-06 06:14:00,54.7,53.3,28.76,SSE,158,1.3,1.3,95,0.00,,,0.00,VWS V14.01,2013-07-06 13:14:00,
2013-07-06 06:19:00,54.9,53.5,28.76,SSW,202,1.3,1.3,95,0.00,,,0.00,VWS V14.01,2013-07-06 13:19:00,
2013-07-06 06:24:00,54.9,53.2,28.76,ESE,112,1.6,1.6,94,0.00,,,0.00,VWS V14.01,2013-07-06 13:24:00,
2013-07-06 06:29:00,55.0,53.3,28.76,SSE,158,1.1,1.1,94,0.00,,,0.00,VWS V14.01,2013-07-06 13:29:00,
2013-07-06 06:30:00,54.1,53.3,28.73,North,0,1.6,1.6,97,0.00,,-RA,0.00,VWS V14.01,2013-07-06 13:30:00,
2013-07-06 06:34:00,55.2,53.5,28.76,SSE,158,0.0,0.0,94,0.00,,,0.00,VWS V14.01,2013-07-06 13:34:00,
2013-07-06 06:39:00,55.2,53.5,28.76,ESE,112,0.0,0.0,94,0.00,,,0.00,VWS V14.01,2013-07-06 13:39:00,
2013-07-06 06:44:00,55.2,53.5,28.76,East,90,0.9,0.9,94,0.00,,,0.00,VWS V14.01,2013-07-06 13:44:00,
2013-07-06 06:49:00,55.2,53.2,28.76,NNE,22,1.6,1.6,93,0.00,,,0.00,VWS V14.01,2013-07-06 13:49:00,
2013-07-06 06:54:00,55.2,53.2,28.76,East,90,0.0,0.0,93,0.00,,,0.00,VWS V14.01,2013-07-06 13:54:00,
2013-07-06 06:59:00,55.4,53.4,28.76,North,0,2.7,2.7,93,0.00,,,0.00,VWS V14.01,2013-07-06 13:59:00,
2013-07-06 07:00:00,54.5,53.4,28.76,NE,45,2.2,2.2,96,0.00,,-RA,0.00,VWS V14.01,2013-07-06 14:00:00,
2013-07-06 07:04:00,55.4,53.4,28.76,NE,45,0.0,0.0,93,0.00,,OVC010,0.00,VWS V14.01,2013-07-06 14:04:00,
2013-07-06 07:09:00,55.4,53.4,28.76,North,0,1.6,1.6,93,0.00,,OVC010,0.00,VWS V14.01,2013-07-06 14:09:00,
2013-07-06 07:14:00,55.6,53.6,28.76,North,0,1.3,1.3,93,0.00,,OVC010,0.00,VWS V14.01,2013-07-06 14:14:00,
2013-07-06 07:19:00,56.1,54.1,28.76,WNW,292,0.0,0.0,93,0.00,,OVC010,0.00,VWS V14.01,2013-07-06 14:19:00,
2013-07-06 07:24:00,56.7,54.7,28.76,NNE,22,0.0,0.0,93,0.00,,OVC010,0.00,VWS V14.01,2013-07-06 14:24:00,
2013-07-06 07:29:00,56.8,54.5,28.76,ESE,112,1.6,1.6,92,0.00,,OVC010,0.00,VWS V14.01,2013-07-06 14:29:00,
2013-07-06 07:30:00,55.0,53.3,28.76,SSW,202,1.3,1.3,94,0.00,,-RA,0.00,VWS V14.01,2013-07-06 14:30:00,
2013-07-06 07:34:00,56.8,54.5,28.76,SE,135,1.6,1.6,92,0.00,,OVC010,0.00,VWS V14.01,2013-07-06 14:34:00,
2013-07-06 07:39:00,57.2,54.6,28.76,SSE,158,0.0,0.0,91,0.00,,OVC010,0.00,VWS V14.01,2013-07-06 14:39:00,
2013-07-06 07:44:00,57.6,54.7,28.76,NE,45,1.1,1.1,90,0.00,,OVC010,0.00,VWS V14.01,2013-07-06 14:44:00,
2013-07-06 07:49:00,57.7,54.5,28.76,NNE,22,0.0,0.0,89,0.00,,OVC010,0.00,VWS V14.01,2013-07-06 14:49:00,
2013-07-06 07:54:00,58.1,54.9,28.76,SSW,202,2.2,2.2,89,0.00,,OVC010,0.00,VWS V14.01,2013-07-06 14:54:00,
2013-07-06 07:59:00,58.5,54.9,28.76,WSW,248,2.7,2.7,88,0.00,,OVC010,0.00,VWS V14.01,2013-07-06 14:59:00,
2013-07-06 08:00:00,55.2,53.2,28.76,NNE,22,2.5,2.5,93,0.00,,-RA,0.00,VWS V14.01,2013-07-06 15:00:00,
2013-07-06 08:04:00,59.2,55.0,28.76,WSW,248,0.0,0.0,86,0.00,,OVC010,0.00,VWS V14.01,2013-07-06 15:04:00,
2013-07-06 08:09:00,59.7,55.2,28.76,WSW,248,0.0,0.0,85,0.00,,OVC010,0.00,VWS V14.01,2013-07-06 15:09:00,
2013-07-06 08:14:00,60.3,55.7,28.76,SSW,202,0.0,0.0,85,0.00,,OVC010,0.00,VWS V14.01,2013-07-06 15:14:00,
2013-07-06 08:19:00,60.6,55.8,28.76,NNE,22,1.3,1.3,84,0.00,,OVC010,0.00,VWS V14.01,2013-07-06 15:19:00,
2013-07-06 08:24:00,60.4,54.6,28.76,East,90,0.0,0.0,81,0.00,,OVC010,0.00,VWS V14.01,2013-07-06 15:24:00,
2013-07-06 08:29:00,60.6,54.8,28.76,NNE,22,0.0,0.0,81,0.00,,OVC010,0.00,VWS V14.01,2013-07-06 15:29:00,
2013-07-06 08:30:00,56.8,54.5,28.76,ESE,112,1.6,1.6,92,0.00,,-RA,0.00,VWS V14.01,2013-07-06 15:30:00,
2013-07-06 08:34:00,60.6,54.4,28.76,NNE,22,2.2,2.2,80,0.00,,OVC010,0.00,VWS V14.01,2013-07-06 15:34:00,
2013-07-06 08:39:00,60.3,53.7,28.73,NNE,22,2.2,2.2,79,0.00,,OVC010,0.00,VWS V14.01,2013-07-06 15:39:00,
2013-07-06 08:44:00,60.6,54.4,28.73,NNW,338,1.6,1.6,80,0.00,,OVC010,0.00,VWS V14.01,2013-07-06 15:44:00,
2013-07-06 08:49:00,61.0,54.4,28.73,NNW,338,2.5,2.5,79,0.00,,OVC010,0.00,VWS V14.01,2013-07-06 15:49:00,
2013-07-06 08:54:00,61.5,55.0,28.76,SSW,202,2.5,2.5,79,0.00,,OVC010,0.00,VWS V14.01,2013-07-06 15:54:00,
2013-07-06 08:59:00,61.5,53.9,28.76,SE,135,2.2,2.2,76,0.00,,OVC010,0.00,VWS V14.01,2013-07-06 15:59:00,
2013-07-06 09:00:00,58.6,55.1,28.76,WSW,248,1.6,1.6,88,0.00,,-RA,0.00,VWS V14.01,2013-07-06 16:00:00,
2013-07-06 09:04:00,61.5,53.9,28.76,NNW,338,1.1,1.1,76,0.00,,OVC010,0.00,VWS V14.01,2013-07-06 16:04:00,
2013-07-06 09:09:00,61.7,54.1,28.76,WSW,248,4.5,4.5,76,0.00,,OVC010,0.00,VWS V14.01,2013-07-06 16:09:00,
2013-07-06 09:14:00,61.3,53.7,28.76,NNW,338,1.3,1.3,76,0.00,,OVC010,0.00,VWS V14.01,2013-07-06 16:14:00,
2013-07-06 09:19:00,61.7,54.4,28.76,SSW,202,2.5,2.5,77,0.00,,OVC010,0.00,VWS V14.01,2013-07-06 16:19:00,
2013-07-06 09:25:00,62.1,54.0,28.76,SSE,158,2.2,2.2,75,0.00,,OVC010,0.00,VWS V14.01,2013-07-06 16:25:00,
2013-07-06 09:30:00,62.4,54.4,28.76,SSW,202,1.3,1.3,75,0.00,,OVC010,0.00,VWS V14.01,2013-07-06 16:30:00,
2013-07-06 09:35:00,63.0,54.5,28.76,SSE,158,0.9,0.9,74,0.00,,OVC010,0.00,VWS V14.01,2013-07-06 16:35:00,
2013-07-06 09:40:00,62.4,53.7,28.73,West,270,1.3,1.3,73,0.00,,OVC010,0.00,VWS V14.01,2013-07-06 16:40:00,
2013-07-06 09:46:00,62.8,54.0,28.73,West,270,2.5,2.5,73,0.00,,OVC010,0.00,VWS V14.01,2013-07-06 16:46:00,
2013-07-06 09:51:00,65.5,55.8,28.73,SE,135,3.1,3.1,71,0.00,,OVC010,0.00,VWS V14.01,2013-07-06 16:51:00,
2013-07-06 09:56:00,68.5,57.2,28.73,West,270,0.0,0.0,67,0.00,,OVC010,0.00,VWS V14.01,2013-07-06 16:56:00,
2013-07-06 10:00:00,61.5,53.5,28.76,East,90,1.1,1.1,75,0.00,,-RA,0.00,VWS V14.01,2013-07-06 17:00:00,
2013-07-06 10:01:00,68.7,56.1,28.73,NNE,22,4.0,4.0,64,0.00,,OVC012,0.00,VWS V14.01,2013-07-06 17:01:00,
2013-07-06 10:06:00,68.4,54.4,28.73,NNE,22,2.2,2.2,61,0.00,,OVC012,0.00,VWS V14.01,2013-07-06 17:06:00,
2013-07-06 10:11:00,68.4,54.4,28.73,North,0,5.4,5.4,61,0.00,,OVC012,0.00,VWS V14.01,2013-07-06 17:11:00,
2013-07-06 10:16:00,68.7,55.2,28.73,NNE,22,3.6,3.6,62,0.00,,OVC012,0.00,VWS V14.01,2013-07-06 17:16:00,
2013-07-06 10:21:00,68.5,54.1,28.73,North,0,2.9,2.9,60,0.00,,OVC012,0.00,VWS V14.01,2013-07-06 17:21:00,
2013-07-06 10:26:00,69.4,55.9,28.73,WNW,292,3.1,3.1,62,0.00,,OVC012,0.00,VWS V14.01,2013-07-06 17:26:00,
2013-07-06 10:30:00,62.4,54.4,28.76,SSW,202,1.3,1.3,75,0.00,,-RA,0.00,VWS V14.01,2013-07-06 17:30:00,
2013-07-06 10:31:00,70.9,54.9,28.73,SE,135,1.1,1.1,57,0.00,,OVC012,0.00,VWS V14.01,2013-07-06 17:31:00,
2013-07-06 10:37:00,71.8,55.8,28.73,WSW,248,2.5,2.5,57,0.00,,OVC012,0.00,VWS V14.01,2013-07-06 17:37:00,
2013-07-06 10:42:00,73.0,55.4,28.73,NE,45,3.8,3.8,54,0.00,,OVC012,0.00,VWS V14.01,2013-07-06 17:42:00,
2013-07-06 10:47:00,71.8,55.8,28.73,NNE,22,4.0,4.0,57,0.00,,OVC012,0.00,VWS V14.01,2013-07-06 17:47:00,
2013-07-06 10:52:00,70.7,55.7,28.73,SSE,158,0.9,0.9,59,0.00,,OVC012,0.00,VWS V14.01,2013-07-06 17:52:00,
2013-07-06 10:57:00,72.7,56.1,28.73,SW,225,3.4,3.4,56,0.00,,OVC012,0.00,VWS V14.01,2013-07-06 17:57:00,
2013-07-06 11:00:00,68.7,56.1,28.73,North,0,2.7,2.7,64,0.00,,-RA,0.00,VWS V14.01,2013-07-06 18:00:00,
2013-07-06 11:02:00,73.4,56.3,28.73,NNW,338,4.0,4.0,55,0.00,,OVC012,0.00,VWS V14.01,2013-07-06 18:02:00,
2013-07-06 11:07:00,73.4,55.2,28.73,SW,225,3.4,3.4,53,0.00,,OVC012,0.00,VWS V14.01,2013-07-06 18:07:00,
2013-07-06 11:13:00,73.6,55.9,28.73,North,0,2.0,2.0,54,0.00,,OVC012,0.00,VWS V14.01,2013-07-06 18:13:00,
2013-07-06 11:18:00,72.9,55.3,28.73,SSW,202,4.0,4.0,54,0.00,,OVC012,0.00,VWS V14.01,2013-07-06 18:18:00,
2013-07-06 11:23:00,73.6,56.9,28.73,South,180,2.9,2.9,56,0.00,,OVC012,0.00,VWS V14.01,2013-07-06 18:23:00,
2013-07-06 11:28:00,72.9,54.2,28.73,West,270,7.6,7.6,52,0.00,,OVC012,0.00,VWS V14.01,2013-07-06 18:28:00,
2013-07-06 11:30:00,70.5,55.0,28.73,WNW,292,3.4,3.4,58,0.00,,-RA,0.00,VWS V14.01,2013-07-06 18:30:00,
2013-07-06 11:33:00,72.7,54.6,28.73,WNW,292,3.4,3.4,53,0.00,,OVC012,0.00,VWS V14.01,2013-07-06 18:33:00,
2013-07-06 11:39:00,72.7,55.6,28.73,SSE,158,3.8,3.8,55,0.00,,OVC012,0.00,VWS V14.01,2013-07-06 18:39:00,
2013-07-06 11:44:00,72.3,55.3,28.73,SSE,158,3.8,3.8,55,0.00,,OVC012,0.00,VWS V14.01,2013-07-06 18:44:00,
2013-07-06 11:49:00,72.9,55.8,28.73,North,0,2.0,2.0,55,0.00,,OVC012,0.00,VWS V14.01,2013-07-06 18:49:00,
2013-07-06 11:54:00,72.1,57.0,28.73,NE,45,2.7,2.7,59,0.00,,OVC012,0.00,VWS V14.01,2013-07-06 18:54:00,
2013-07-06 12:00:00,72.3,56.2,28.73,West,270,6.9,6.9,57,0.00,,OVC012,0.00,VWS V14.01,2013-07-06 19:00:00,
2013-07-06 12:05:00,72.1,56.6,28.73,SE,135,2.0,2.0,58,0.00,,OVC018,0.00,VWS V14.01,2013-07-06 19:05:00,
2013-07-06 12:10:00,72.1,55.6,28.70,North,0,4.7,4.7,56,0.00,,OVC018,0.00,VWS V14.01,2013-07-06 19:10:00,
2013-07-06 12:15:00,71.6,55.1,28.70,North,0,11.9,11.9,56,0.00,,OVC018,0.00,VWS V14.01,2013-07-06 19:15:00,
2013-07-06 12:20:00,70.9,55.4,28.70,NNW,338,3.6,3.6,58,0.00,,OVC018,0.00,VWS V14.01,2013-07-06 19:20:00,
2013-07-06 12:25:00,70.9,56.8,28.67,North,0,3.1,3.1,61,0.00,,OVC018,0.00,VWS V14.01,2013-07-06 19:25:00,
2013-07-06 12:30:00,70.7,56.2,28.67,WNW,292,4.9,4.9,60,0.00,,OVC018,0.00,VWS V14.01,2013-07-06 19:30:00,
2013-07-06 12:36:00,70.7,55.2,28.67,SSW,202,6.5,6.5,58,0.00,,OVC018,0.00,VWS V14.01,2013-07-06 19:36:00,
2013-07-06 12:41:00,72.0,56.9,28.67,NNW,338,5.4,5.4,59,0.00,,OVC018,0.00,VWS V14.01,2013-07-06 19:41:00,
2013-07-06 12:46:00,72.5,58.3,28.67,North,0,2.9,2.9,61,0.00,,OVC018,0.00,VWS V14.01,2013-07-06 19:46:00,
2013-07-06 12:51:00,72.7,57.5,28.67,SSE,158,4.0,4.0,59,0.00,,OVC018,0.00,VWS V14.01,2013-07-06 19:51:00,
2013-07-06 12:56:00,72.5,57.8,28.67,NE,45,6.5,6.5,60,0.00,,OVC018,0.00,VWS V14.01,2013-07-06 19:56:00,
2013-07-06 13:00:00,72.3,56.2,28.73,West,270,6.9,6.9,57,0.00,,-RA,0.00,VWS V14.01,2013-07-06 20:00:00,
2013-07-06 13:02:00,71.4,57.3,28.67,North,0,7.8,7.8,61,0.00,,CLR,0.00,VWS V14.01,2013-07-06 20:02:00,
2013-07-06 13:07:00,71.2,57.6,28.67,NW,315,6.3,6.3,62,0.00,,CLR,0.00,VWS V14.01,2013-07-06 20:07:00,
2013-07-06 13:12:00,71.1,57.4,28.67,NNW,338,5.6,5.6,62,0.00,,CLR,0.00,VWS V14.01,2013-07-06 20:12:00,
2013-07-06 13:17:00,70.9,56.8,28.67,WNW,292,4.0,4.0,61,0.00,,CLR,0.00,VWS V14.01,2013-07-06 20:17:00,
2013-07-06 13:22:00,71.2,56.2,28.67,North,0,3.6,3.6,59,0.00,,CLR,0.00,VWS V14.01,2013-07-06 20:22:00,
2013-07-06 13:27:00,71.4,58.2,28.70,East,90,7.4,7.4,63,0.00,,CLR,0.00,VWS V14.01,2013-07-06 20:27:00,
2013-07-06 13:30:00,70.9,57.2,28.67,NNE,22,5.6,5.6,62,0.00,,-RA,0.00,VWS V14.01,2013-07-06 20:30:00,
2013-07-06 13:32:00,71.2,57.1,28.70,NNE,22,7.4,7.4,61,0.00,,CLR,0.00,VWS V14.01,2013-07-06 20:32:00,
2013-07-06 13:37:00,72.1,57.0,28.67,South,180,3.8,3.8,59,0.00,,CLR,0.00,VWS V14.01,2013-07-06 20:37:00,
2013-07-06 13:42:00,73.0,56.9,28.67,West,270,4.9,4.9,57,0.00,,CLR,0.00,VWS V14.01,2013-07-06 20:42:00,
2013-07-06 13:48:00,73.4,57.3,28.67,NW,315,2.9,2.9,57,0.00,,CLR,0.00,VWS V14.01,2013-07-06 20:48:00,
2013-07-06 13:53:00,72.7,57.1,28.70,North,0,4.9,4.9,58,0.00,,CLR,0.00,VWS V14.01,2013-07-06 20:53:00,
2013-07-06 13:58:00,73.4,58.2,28.70,NNW,338,3.8,3.8,59,0.00,,CLR,0.00,VWS V14.01,2013-07-06 20:58:00,
2013-07-06 14:00:00,71.6,56.1,28.67,NE,45,4.3,4.3,58,0.00,,-RA,0.00,VWS V14.01,2013-07-06 21:00:00,
2013-07-06 14:03:00,73.8,57.6,28.70,NE,45,3.8,3.8,57,0.00,,CLR,0.00,VWS V14.01,2013-07-06 21:03:00,
2013-07-06 14:09:00,74.8,58.6,28.67,NNW,338,2.9,2.9,57,0.00,,CLR,0.00,VWS V14.01,2013-07-06 21:09:00,
2013-07-06 14:14:00,75.2,57.9,28.67,North,0,5.4,5.4,55,0.00,,CLR,0.00,VWS V14.01,2013-07-06 21:14:00,
2013-07-06 14:19:00,75.6,57.8,28.67,NNE,22,2.5,2.5,54,0.00,,CLR,0.00,VWS V14.01,2013-07-06 21:19:00,
2013-07-06 14:24:00,76.5,59.6,28.70,East,90,2.9,2.9,56,0.00,,CLR,0.00,VWS V14.01,2013-07-06 21:24:00,
2013-07-06 14:29:00,76.6,59.3,28.70,SE,135,3.6,3.6,55,0.00,,CLR,0.00,VWS V14.01,2013-07-06 21:29:00,
2013-07-06 14:30:00,71.1,56.0,28.70,North,0,6.5,6.5,59,0.00,,-RA,0.00,VWS V14.01,2013-07-06 21:30:00,
2013-07-06 14:34:00,77.7,58.2,28.70,ENE,68,1.6,1.6,51,0.00,,CLR,0.00,VWS V14.01,2013-07-06 21:34:00,
2013-07-06 14:39:00,77.4,57.8,28.67,SSW,202,7.2,7.2,51,0.00,,CLR,0.00,VWS V14.01,2013-07-06 21:39:00,
2013-07-06 14:44:00,77.5,58.0,28.67,North,0,2.0,2.0,51,0.00,,CLR,0.00,VWS V14.01,2013-07-06 21:44:00,
2013-07-06 14:49:00,78.6,59.0,28.67,North,0,2.5,2.5,51,0.00,,CLR,0.00,VWS V14.01,2013-07-06 21:49:00,
2013-07-06 14:54:00,79.3,58.0,28.67,SSW,202,5.6,5.6,48,0.00,,CLR,0.00,VWS V14.01,2013-07-06 21:54:00,
2013-07-06 14:59:00,78.3,58.1,28.67,NNW,338,6.5,6.5,50,0.00,,CLR,0.00,VWS V14.01,2013-07-06 21:59:00,
2013-07-06 15:00:00,73.2,57.6,28.70,NNE,22,6.5,6.5,58,0.00,,-RA,0.00,VWS V14.01,2013-07-06 22:00:00,
2013-07-06 15:05:00,78.1,57.4,28.67,NNE,22,2.2,2.2,49,0.00,,CLR,0.00,VWS V14.01,2013-07-06 22:05:00,
2013-07-06 15:10:00,79.2,57.8,28.64,WSW,248,2.9,2.9,48,0.00,,CLR,0.00,VWS V14.01,2013-07-06 22:10:00,
2013-07-06 15:15:00,79.5,59.3,28.64,North,0,4.3,4.3,50,0.00,,CLR,0.00,VWS V14.01,2013-07-06 22:15:00,
2013-07-06 15:20:00,78.6,59.0,28.64,North,0,2.7,2.7,51,0.00,,CLR,0.00,VWS V14.01,2013-07-06 22:20:00,
2013-07-06 15:25:00,79.7,58.3,28.64,North,0,1.6,1.6,48,0.00,,CLR,0.00,VWS V14.01,2013-07-06 22:25:00,
2013-07-06 15:30:00,78.4,56.6,28.64,NNW,338,6.0,6.0,47,0.00,,CLR,0.00,VWS V14.01,2013-07-06 22:30:00,
2013-07-06 15:35:00,79.2,57.8,28.64,North,0,5.8,5.8,48,0.00,,CLR,0.00,VWS V14.01,2013-07-06 22:35:00,
2013-07-06 15:40:00,79.9,57.9,28.64,SSW,202,3.8,3.8,47,0.00,,CLR,0.00,VWS V14.01,2013-07-06 22:40:00,
2013-07-06 15:45:00,81.3,58.6,28.64,NW,315,2.5,2.5,46,0.00,,CLR,0.00,VWS V14.01,2013-07-06 22:45:00,
2013-07-06 15:50:00,81.5,58.1,28.64,SSW,202,5.4,5.4,45,0.00,,CLR,0.00,VWS V14.01,2013-07-06 22:50:00,
2013-07-06 15:55:00,81.3,58.0,28.64,NNW,338,3.1,3.1,45,0.00,,CLR,0.00,VWS V14.01,2013-07-06 22:55:00,
2013-07-06 16:00:00,78.3,58.1,28.67,NE,45,4.7,4.7,50,0.00,,-RA,0.00,VWS V14.01,2013-07-06 23:00:00,
2013-07-06 16:01:00,80.6,57.3,28.64,North,0,3.4,3.4,45,0.00,,CLR,0.00,VWS V14.01,2013-07-06 23:01:00,
2013-07-06 16:06:00,79.9,56.7,28.64,NNE,22,3.6,3.6,45,0.00,,CLR,0.00,VWS V14.01,2013-07-06 23:06:00,
2013-07-06 16:11:00,80.1,56.8,28.67,North,0,4.3,4.3,45,0.00,,CLR,0.00,VWS V14.01,2013-07-06 23:11:00,
2013-07-06 16:16:00,79.9,56.0,28.67,WNW,292,2.2,2.2,44,0.00,,CLR,0.00,VWS V14.01,2013-07-06 23:16:00,
2013-07-06 16:21:00,79.7,55.9,28.67,NW,315,6.0,6.0,44,0.00,,CLR,0.00,VWS V14.01,2013-07-06 23:21:00,
2013-07-06 16:27:00,79.2,56.0,28.64,North,0,1.6,1.6,45,0.00,,CLR,0.00,VWS V14.01,2013-07-06 23:27:00,
2013-07-06 16:30:00,78.8,56.9,28.64,North,0,6.9,6.9,47,0.00,,-RA,0.00,VWS V14.01,2013-07-06 23:30:00,
2013-07-06 16:32:00,79.2,56.0,28.64,SW,225,3.1,3.1,45,0.00,,CLR,0.00,VWS V14.01,2013-07-06 23:32:00,
2013-07-06 16:37:00,79.2,56.0,28.64,NNE,22,2.5,2.5,45,0.00,,CLR,0.00,VWS V14.01,2013-07-06 23:37:00,
2013-07-06 16:42:00,80.2,56.4,28.67,SSW,202,3.4,3.4,44,0.00,,CLR,0.00,VWS V14.01,2013-07-06 23:42:00,
2013-07-06 16:47:00,80.6,56.7,28.67,ENE,68,2.0,2.0,44,0.00,,CLR,0.00,VWS V14.01,2013-07-06 23:47:00,
2013-07-06 16:52:00,81.0,55.7,28.64,WSW,248,4.0,4.0,42,0.00,,CLR,0.00,VWS V14.01,2013-07-06 23:52:00,
2013-07-06 16:57:00,81.0,55.7,28.64,SSE,158,2.0,2.0,42,0.00,,CLR,0.00,VWS V14.01,2013-07-06 23:57:00,
2013-07-06 17:00:00,81.3,58.0,28.64,NE,45,5.8,5.8,45,0.00,,-RA,0.00,VWS V14.01,2013-07-07 00:00:00,
2013-07-06 17:02:00,81.5,56.2,28.64,SSW,202,2.5,2.5,42,0.00,,SCT047,0.00,VWS V14.01,2013-07-07 00:02:00,
2013-07-06 17:08:00,80.6,54.8,28.64,NE,45,5.4,5.4,41,0.00,,SCT047,0.00,VWS V14.01,2013-07-07 00:08:00,
2013-07-06 17:13:00,80.2,55.1,28.64,SW,225,2.7,2.7,42,0.00,,SCT047,0.00,VWS V14.01,2013-07-07 00:13:00,
2013-07-06 17:18:00,81.0,55.7,28.64,NNW,338,1.6,1.6,42,0.00,,SCT047,0.00,VWS V14.01,2013-07-07 00:18:00,
2013-07-06 17:23:00,81.3,55.4,28.61,SSW,202,1.3,1.3,41,0.00,,SCT047,0.00,VWS V14.01,2013-07-07 00:23:00,
2013-07-06 17:28:00,81.9,55.2,28.61,South,180,2.0,2.0,40,0.00,,SCT047,0.00,VWS V14.01,2013-07-07 00:28:00,
2013-07-06 17:30:00,79.2,56.0,28.64,North,0,5.4,5.4,45,0.00,,-RA,0.00,VWS V14.01,2013-07-07 00:30:00,
2013-07-06 17:33:00,82.0,54.7,28.61,SSW,202,3.4,3.4,39,0.00,,FEW047,0.00,VWS V14.01,2013-07-07 00:33:00,
2013-07-06 17:38:00,81.0,54.4,28.61,North,0,2.0,2.0,40,0.00,,FEW047,0.00,VWS V14.01,2013-07-07 00:38:00,
2013-07-06 17:43:00,81.0,55.1,28.61,NE,45,0.9,0.9,41,0.00,,FEW047,0.00,VWS V14.01,2013-07-07 00:43:00,
2013-07-06 17:48:00,81.0,54.4,28.61,SE,135,3.1,3.1,40,0.00,,FEW047,0.00,VWS V14.01,2013-07-07 00:48:00,
2013-07-06 17:53:00,81.5,55.5,28.64,SE,135,1.6,1.6,41,0.00,,FEW047,0.00,VWS V14.01,2013-07-07 00:53:00,
2013-07-06 17:59:00,81.7,55.0,28.64,WSW,248,3.8,3.8,40,0.00,,FEW047,0.00,VWS V14.01,2013-07-07 00:59:00,
2013-07-06 18:00:00,81.1,56.5,28.64,SSW,202,4.9,4.9,43,0.00,,-RA,0.00,VWS V14.01,2013-07-07 01:00:00,
2013-07-06 18:04:00,81.3,55.4,28.64,North,0,2.5,2.5,41,0.00,,CLR,0.00,VWS V14.01,2013-07-07 01:04:00,
2013-07-06 18:09:00,80.6,54.1,28.61,North,0,3.6,3.6,40,0.00,,CLR,0.00,VWS V14.01,2013-07-07 01:09:00,
2013-07-06 18:14:00,80.4,54.6,28.61,NNW,338,1.1,1.1,41,0.00,,CLR,0.00,VWS V14.01,2013-07-07 01:14:00,
2013-07-06 18:20:00,79.9,54.1,28.61,NNE,22,2.7,2.7,41,0.00,,CLR,0.00,VWS V14.01,2013-07-07 01:20:00,
2013-07-06 18:25:00,80.4,54.6,28.61,SE,135,1.3,1.3,41,0.00,,CLR,0.00,VWS V14.01,2013-07-07 01:25:00,
2013-07-06 18:30:00,80.6,54.1,28.61,West,270,1.1,1.1,40,0.00,,CLR,0.00,VWS V14.01,2013-07-07 01:30:00,
2013-07-06 18:35:00,80.1,53.6,28.61,WNW,292,1.3,1.3,40,0.00,,SCT049,0.00,VWS V14.01,2013-07-07 01:35:00,
2013-07-06 18:40:00,80.6,54.1,28.64,West,270,2.0,2.0,40,0.00,,SCT049,0.00,VWS V14.01,2013-07-07 01:40:00,
2013-07-06 18:45:00,80.4,53.9,28.64,North,0,1.3,1.3,40,0.00,,SCT049,0.00,VWS V14.01,2013-07-07 01:45:00,
2013-07-06 18:50:00,80.2,54.4,28.64,West,270,0.0,0.0,41,0.00,,SCT049,0.00,VWS V14.01,2013-07-07 01:50:00,
2013-07-06 18:55:00,80.2,55.1,28.64,WSW,248,1.6,1.6,42,0.00,,SCT049,0.00,VWS V14.01,2013-07-07 01:55:00,
2013-07-06 19:00:00,79.9,54.1,28.64,WNW,292,0.0,0.0,41,0.00,,SCT049,0.00,VWS V14.01,2013-07-07 02:00:00,
2013-07-06 19:05:00,78.6,53.0,28.64,WNW,292,0.9,0.9,41,0.00,,CLR,0.00,VWS V14.01,2013-07-07 02:05:00,
2013-07-06 19:10:00,77.0,52.2,28.64,NW,315,2.5,2.5,42,0.00,,CLR,0.00,VWS V14.01,2013-07-07 02:10:00,
2013-07-06 19:16:00,75.0,52.3,28.64,WNW,292,2.0,2.0,45,0.00,,CLR,0.00,VWS V14.01,2013-07-07 02:16:00,
2013-07-06 19:21:00,74.1,50.8,28.64,SSW,202,0.9,0.9,44,0.00,,CLR,0.00,VWS V14.01,2013-07-07 02:21:00,
2013-07-06 19:26:00,73.2,52.4,28.67,West,270,1.1,1.1,48,0.00,,CLR,0.00,VWS V14.01,2013-07-07 02:26:00,
2013-07-06 19:30:00,80.6,54.1,28.61,West,270,1.1,1.1,40,0.00,,-RA,0.00,VWS V14.01,2013-07-07 02:30:00,
2013-07-06 19:31:00,72.1,52.5,28.67,SW,225,2.7,2.7,50,0.00,,CLR,0.00,VWS V14.01,2013-07-07 02:31:00,
2013-07-06 19:36:00,71.2,53.8,28.67,NNE,22,1.3,1.3,54,0.00,,CLR,0.00,VWS V14.01,2013-07-07 02:36:00,
2013-07-06 19:42:00,70.2,54.2,28.67,SW,225,0.0,0.0,57,0.00,,CLR,0.00,VWS V14.01,2013-07-07 02:42:00,
2013-07-06 19:47:00,69.3,56.1,28.67,West,270,2.5,2.5,63,0.00,,CLR,0.00,VWS V14.01,2013-07-07 02:47:00,
2013-07-06 19:52:00,68.7,56.1,28.64,West,270,3.4,3.4,64,0.00,,CLR,0.00,VWS V14.01,2013-07-07 02:52:00,
2013-07-06 19:57:00,68.5,55.5,28.64,North,0,2.7,2.7,63,0.00,,CLR,0.00,VWS V14.01,2013-07-07 02:57:00,
2013-07-06 20:00:00,79.9,54.1,28.64,WNW,292,0.0,0.0,41,0.00,,-RA,0.00,VWS V14.01,2013-07-07 03:00:00,
2013-07-06 20:02:00,68.4,55.3,28.64,WSW,248,1.3,1.3,63,0.00,,CLR,0.00,VWS V14.01,2013-07-07 03:02:00,
2013-07-06 20:07:00,67.6,57.1,28.64,West,270,2.2,2.2,69,0.00,,CLR,0.00,VWS V14.01,2013-07-07 03:07:00,
2013-07-06 20:13:00,67.1,56.2,28.64,West,270,2.0,2.0,68,0.00,,CLR,0.00,VWS V14.01,2013-07-07 03:13:00,
2013-07-06 20:18:00,66.7,56.7,28.64,ENE,68,1.1,1.1,70,0.00,,CLR,0.00,VWS V14.01,2013-07-07 03:18:00,
2013-07-06 20:23:00,66.2,55.7,28.64,SW,225,2.0,2.0,69,0.00,,CLR,0.00,VWS V14.01,2013-07-07 03:23:00,
2013-07-06 20:28:00,65.5,56.6,28.64,West,270,1.1,1.1,73,0.00,,CLR,0.00,VWS V14.01,2013-07-07 03:28:00,
2013-07-06 20:30:00,72.3,52.7,28.67,West,270,1.1,1.1,50,0.00,,-RA,0.00,VWS V14.01,2013-07-07 03:30:00,
2013-07-06 20:34:00,65.1,56.6,28.64,SSE,158,1.3,1.3,74,0.00,,CLR,0.00,VWS V14.01,2013-07-07 03:34:00,
2013-07-06 20:39:00,64.8,56.7,28.67,South,180,1.1,1.1,75,0.00,,CLR,0.00,VWS V14.01,2013-07-07 03:39:00,
2013-07-06 20:44:00,64.2,56.9,28.67,SSW,202,2.9,2.9,77,0.00,,CLR,0.00,VWS V14.01,2013-07-07 03:44:00,
2013-07-06 20:49:00,64.2,57.2,28.67,SW,225,1.1,1.1,78,0.00,,CLR,0.00,VWS V14.01,2013-07-07 03:49:00,
2013-07-06 20:54:00,64.4,55.2,28.67,South,180,2.9,2.9,72,0.00,,CLR,0.00,VWS V14.01,2013-07-07 03:54:00,
2013-07-06 20:59:00,64.2,55.8,28.67,NNW,338,3.4,3.4,74,0.00,,CLR,0.00,VWS V14.01,2013-07-07 03:59:00,
2013-07-06 21:01:00,64.4,55.2,28.67,WSW,248,2.0,2.0,72,0.00,,CLR,0.00,VWS V14.01,2013-07-07 04:01:00,
2013-07-06 21:06:00,65.1,55.5,28.67,West,270,2.2,2.2,71,0.00,,CLR,0.00,VWS V14.01,2013-07-07 04:06:00,
2013-07-06 21:11:00,65.5,54.7,28.67,East,90,3.1,3.1,68,0.00,,CLR,0.00,VWS V14.01,2013-07-07 04:11:00,
2013-07-06 21:16:00,65.3,55.3,28.67,WNW,292,3.4,3.4,70,0.00,,CLR,0.00,VWS V14.01,2013-07-07 04:16:00,
2013-07-06 21:21:00,64.9,54.1,28.67,WNW,292,2.7,2.7,68,0.00,,CLR,0.00,VWS V14.01,2013-07-07 04:21:00,
2013-07-06 21:26:00,64.6,54.6,28.67,SW,225,3.8,3.8,70,0.00,,CLR,0.00,VWS V14.01,2013-07-07 04:26:00,
2013-07-06 21:30:00,65.5,56.6,28.64,West,270,3.6,3.6,73,0.00,,-RA,0.00,VWS V14.01,2013-07-07 04:30:00,
2013-07-06 21:31:00,64.2,55.0,28.67,West,270,1.3,1.3,72,0.00,,CLR,0.00,VWS V14.01,2013-07-07 04:31:00,
2013-07-06 21:36:00,63.9,55.0,28.67,West,270,3.1,3.1,73,0.00,,CLR,0.00,VWS V14.01,2013-07-07 04:36:00,
2013-07-06 21:41:00,63.7,54.5,28.67,SW,225,2.9,2.9,72,0.00,,CLR,0.00,VWS V14.01,2013-07-07 04:41:00,
2013-07-06 21:46:00,63.3,54.9,28.67,NNW,338,3.1,3.1,74,0.00,,CLR,0.00,VWS V14.01,2013-07-07 04:46:00,
2013-07-06 21:51:00,63.0,54.5,28.67,NE,45,1.6,1.6,74,0.00,,CLR,0.00,VWS V14.01,2013-07-07 04:51:00,
2013-07-06 21:56:00,62.6,55.3,28.67,SW,225,4.3,4.3,77,0.00,,CLR,0.00,VWS V14.01,2013-07-07 04:56:00,
2013-07-06 22:00:00,64.2,55.8,28.67,NW,315,4.3,4.3,74,0.00,,-RA,0.00,VWS V14.01,2013-07-07 05:00:00,
2013-07-06 22:01:00,62.6,55.3,28.67,WSW,248,2.7,2.7,77,0.00,,CLR,0.00,VWS V14.01,2013-07-07 05:01:00,
2013-07-06 22:06:00,61.7,54.8,28.67,SSW,202,1.6,1.6,78,0.00,,CLR,0.00,VWS V14.01,2013-07-07 05:06:00,
2013-07-06 22:11:00,61.0,54.8,28.67,NE,45,2.0,2.0,80,0.00,,CLR,0.00,VWS V14.01,2013-07-07 05:11:00,
2013-07-06 22:16:00,61.0,55.1,28.67,SE,135,1.1,1.1,81,0.00,,CLR,0.00,VWS V14.01,2013-07-07 05:16:00,
2013-07-06 22:21:00,60.6,54.8,28.67,SSE,158,1.1,1.1,81,0.00,,CLR,0.00,VWS V14.01,2013-07-07 05:21:00,
2013-07-06 22:26:00,60.1,54.2,28.67,SSW,202,1.1,1.1,81,0.00,,CLR,0.00,VWS V14.01,2013-07-07 05:26:00,
2013-07-06 22:30:00,59.5,53.7,28.67,SSW,202,2.9,2.9,81,0.00,,CLR,0.00,VWS V14.01,2013-07-07 05:30:00,
2013-07-06 22:35:00,59.2,53.7,28.67,SSW,202,2.5,2.5,82,0.00,,CLR,0.00,VWS V14.01,2013-07-07 05:35:00,
2013-07-06 22:40:00,58.8,53.7,28.67,NNW,338,1.6,1.6,83,0.00,,CLR,0.00,VWS V14.01,2013-07-07 05:40:00,
2013-07-06 22:45:00,58.6,54.2,28.67,SSE,158,2.9,2.9,85,0.00,,CLR,0.00,VWS V14.01,2013-07-07 05:45:00,
2013-07-06 22:50:00,58.3,54.4,28.67,WSW,248,1.6,1.6,87,0.00,,CLR,0.00,VWS V14.01,2013-07-07 05:50:00,
2013-07-06 22:55:00,58.3,55.1,28.67,NNE,22,0.0,0.0,89,0.00,,CLR,0.00,VWS V14.01,2013-07-07 05:55:00,
2013-07-06 23:00:00,57.9,54.4,28.67,NNE,22,0.0,0.0,88,0.00,,CLR,0.00,VWS V14.01,2013-07-07 06:00:00,
2013-07-06 23:05:00,57.7,54.2,28.67,SSW,202,3.6,3.6,88,0.00,,CLR,0.00,VWS V14.01,2013-07-07 06:05:00,
2013-07-06 23:10:00,57.2,54.0,28.70,NE,45,0.0,0.0,89,0.00,,CLR,0.00,VWS V14.01,2013-07-07 06:10:00,
2013-07-06 23:15:00,57.0,53.8,28.70,South,180,0.0,0.0,89,0.00,,CLR,0.00,VWS V14.01,2013-07-07 06:15:00,
2013-07-06 23:20:00,56.8,53.6,28.70,NNE,22,3.1,3.1,89,0.00,,CLR,0.00,VWS V14.01,2013-07-07 06:20:00,
2013-07-06 23:25:00,56.7,53.8,28.70,SSW,202,0.9,0.9,90,0.00,,CLR,0.00,VWS V14.01,2013-07-07 06:25:00,
2013-07-06 23:30:00,56.5,53.6,28.70,SSE,158,0.0,0.0,90,0.00,,CLR,0.00,VWS V14.01,2013-07-07 06:30:00,
2013-07-06 23:35:00,56.1,53.2,28.70,SSE,158,0.0,0.0,90,0.00,,CLR,0.00,VWS V14.01,2013-07-07 06:35:00,
2013-07-06 23:40:00,55.8,52.9,28.70,SSE,158,0.0,0.0,90,0.00,,CLR,0.00,VWS V14.01,2013-07-07 06:40:00,
2013-07-06 23:45:00,55.2,52.3,28.70,NNE,22,0.0,0.0,90,0.00,,CLR,0.00,VWS V14.01,2013-07-07 06:45:00,
2013-07-06 23:50:00,55.0,52.2,28.70,SW,225,0.0,0.0,90,0.00,,CLR,0.00,VWS V14.01,2013-07-07 06:50:00,
2013-07-06 23:55:00,54.9,52.3,28.70,SW,225,0.0,0.0,91,0.00,,CLR,0.00,VWS V14.01,2013-07-07 06:55:00,